Home   Weather   Changchun   Past weeks

Flag for China Past Weather in Changchun, Jilin, China — Yesterday and Last 2 Weeks

Now
84 °F

Passing clouds.


Feels Like: 85 °F
Forecast: 64 / 85 °F
Wind: 1 mph from North

Location: Changchun Airport

Current Time: Jul 22, 2017 at 3:05:28 pm

Latest Report: Jul 22, 2017 at 2:00 pm


Visibility: N/A

Pressure: 29.80 "Hg

Humidity: 48%

Dew Point: 63 °F

Location of ChangchunLocation

Past Weather in Changchun — Graph

°F

Changchun Temperature Yesterday

Maximum temperature yesterday: 81 °F (at 2:00 pm)
Minimum temperature yesterday: 59 °F (at 4:00 am)
Average temperature yesterday: 71 °F

High & Low Weather Summary for the Past Weeks

 TemperatureHumidityPressure
High95 °F (Jul 9, 2:00 pm)94% (Jul 16, 4:00 am)29.92 "Hg (Jul 16, 4:00 am)
Low59 °F (Jul 21, 4:00 am)29% (Jul 11, 5:00 pm)29.45 "Hg (Jul 10, 3:00 pm)
Average78 °F70%29.64 "Hg
* Reported Jul 7 1:00 pm — Jul 22 1:00 pm, Changchun. Weather by CustomWeather, © 2017

Note: Actual official high and low records may vary slightly from our data, if they occured in-between our weather recording intervals... More about our weather records

Advertising

Changchun Weather History for the Previous 24 Hours

Scroll right to see more
 ConditionsComfort  
Time TempWeatherWind HumidityBarometerVisibility
1:00 pm
Sat, Jul 22
82 °FPassing clouds.3 mph58%29.83 "HgN/A
12:00 pm82 °FSunny.1 mph48%29.83 "Hg10 mi
11:00 am79 °FSunny.1 mph54%29.86 "Hg10 mi
10:00 am77 °FPassing clouds.3 mph65%29.86 "HgN/A
9:00 am73 °FPassing clouds.3 mph74%29.86 "HgN/A
8:00 am70 °FPassing clouds.3 mph83%29.86 "HgN/A
7:00 am68 °FPassing clouds.1 mph83%29.89 "HgN/A
6:00 am66 °FPassing clouds.3 mph88%29.89 "HgN/A
5:00 am64 °FPassing clouds.3 mph94%29.89 "Hg4 mi
4:00 am64 °FClear.1 mph94%29.89 "Hg4 mi
3:00 am66 °FClear.1 mph88%29.89 "Hg4 mi
2:00 am66 °FClear.No wind94%29.89 "Hg4 mi
1:00 am66 °FClear.1 mph94%29.89 "Hg4 mi
12:00 am66 °FClear.No wind94%29.89 "Hg10 mi
11:00 pm
Fri, Jul 21
68 °FClear.1 mph88%29.92 "Hg10 mi
10:00 pm70 °FClear.1 mph88%29.92 "Hg10 mi
9:00 pm72 °FClear.1 mph83%29.89 "Hg10 mi
8:00 pm72 °FClear.1 mph83%29.89 "Hg10 mi
7:00 pm73 °FSunny.1 mph78%29.89 "Hg10 mi
6:00 pm79 °FPassing clouds.1 mph61%29.89 "HgN/A
5:00 pm81 °FPassing clouds.1 mph58%29.86 "HgN/A
4:00 pm81 °FPassing clouds.6 mph51%29.86 "HgN/A
3:00 pm81 °FScattered clouds.3 mph54%29.86 "HgN/A
Weather by CustomWeather, © 2017

See weather overviewHow to use our weather pages